Meteo Giornale » Osservazioni meteo Italia » Brescia-Ghedi

ore: 18:55 - Osservazioni Meteo Brescia-Ghedi
Lat. 45° 25' N Lon. 10° 17' E Alt. 102 metri s.l.m.

nuvoloso Europe/Rome

28 °C

Nuvoloso

Temp. 24 Ore

23 °C

29 °C

Sud

7.4 Km/h

Dew point 19 °C

Umidità 58 %

Visibilità  10 Km

Il sole sorge alle ore 06:26

Il sole tramonta alle ore 20:16

Data e Ora Cielo e Fenomeni T °C DP °C Um. % Pres. hPa Vis. km Vento km/h
Oggi h: 18:55 nuvoloso Nuvoloso 28 19 58 1019 10 S 7.4
Oggi h: 17:55 poco_nuvoloso Poco Nuvoloso 28 19 58 1019 10 N 5.5
Oggi h: 16:55 poco_nuvoloso Poco Nuvoloso 29 20 58 1019 10 N 5.5
Oggi h: 15:55 poco_nuvoloso Poco Nuvoloso 29 20 58 1020 10 S 7.4
Oggi h: 14:55 poco_nuvoloso Poco Nuvoloso 28 20 61 1020 10 N 5.5
Oggi h: 13:55 poco_nuvoloso Poco Nuvoloso 28 20 61 1021 10 N 3.7
Oggi h: 12:55 poco_nuvoloso Poco Nuvoloso 28 20 61 1021 10 N 5.5
Oggi h: 11:55 poco_nuvoloso Poco Nuvoloso 27 20 65 1021 10 N 3.7
Oggi h: 10:55 poco_nuvoloso Poco Nuvoloso 26 21 73 1021 10 N 3.7
Oggi h: 09:55 nuvoloso Nuvoloso 24 21 83 1021 10 N 3.7
Oggi h: 08:55 nuvoloso Nuvoloso 24 21 83 1021 10 N 3.7
Oggi h: 08:24 coperto_pioggia Pioggia Debole 23 21 88 1021 10 N 5.5
Oggi h: 07:55 nuvoloso_temporali Temporale con Pioggia Debole 23 21 88 1021 10 N/NO 9.3
Oggi h: 06:55 nuvoloso_temporali Temporale con Pioggia Debole 24 20 78 1020 10 E 9.3
Oggi h: 06:32 coperto_temporali Temporale 24 20 78 1019 10 N 3.7
Oggi h: 05:55 poco_nuvoloso Poco Nuvoloso 24 19 73 1019 10 E/SE 7.4
Oggi h: 04:55 poco_nuvoloso Poco Nuvoloso 24 20 78 1019 10 SE 7.4
Oggi h: 03:55 poco_nuvoloso Poco Nuvoloso 24 20 78 1019 10 NE 9.3
Oggi h: 02:55 poco_nuvoloso Poco Nuvoloso 25 20 73 1019 10 E/NE 11.1
Oggi h: 01:55 poco_nuvoloso Poco Nuvoloso 26 19 65 1019 10 E 13
Oggi h: 00:55 poco_nuvoloso Poco Nuvoloso 26 20 69 1019 10 E 13
Ieri h: 23:55 poco_nuvoloso Poco Nuvoloso 26 19 65 1019 10 E 18.5
Ieri h: 21:55 sereno Sereno 28 21 65 1018 10 E 24
Ieri h: 20:55 sereno Sereno 28 19 58 1017 10 E 7.4